Etusivu
METAR-TAF:

METAR-TAF

Lentoasemat :

Fayette Regional Air Center

La Grange, Texas, Yhdysvallat

Leveyspiiri: 29-54-29N, Pituuspiiri: 096-57-00W, korkeus merenpinnasta: 99 m

Tämänhetkinen sää

Tämä raportti tehtiin 23 minuuttia sitten, kello 03.15 UTC
Tuuli 4 kn kaakosta
Lämpötila 17°C
Kosteus 77%
Ilmanpaine 1008 hPa
Näkyvyys: 16.1 km
selkeää

METAR: K3T5 150315Z AUTO 13004KT 10SM CLR 17/13 A2976 RMK AO2 T01650126

Aika: 21:38 (03:38 UTC)


TAF: puuttuu

Säähavainnot ja -ennusteet yli 4000 lentoasemalta (METAR- ja TAF-raportit).

Käytössä olevat sääasemat on merkitty karttaan keltaisilla ja punaisilla pisteillä.

Aseta hiiri pisteen päälle nähdäksesi sääaseman nimen.

Klikkaa sitten nähdäksesi säähavainnot ja -ennusteet.

Kartan vaihtaminen: klikkaa mustalla rastilla varustettuja vihreitä pisteitä, niin voit zoomata sisään; viivalla varustettua vihreää pistettä, niin voit zoomata ulos tai vihreitä nuolia, niin pääset viereisille kartoille.


METAR-TAF: